Home   Weather   Esbjerg   Past weeks

Flag for Denmark Past Weather in Esbjerg, Denmark — Yesterday and Last 2 Weeks

Now
57 °F

Passing clouds.


Feels Like: 57 °F
Forecast: 59 / 64 °F
Wind: 5 mph from South

Location: Esbjerg Airport

Current Time: Aug 31, 2016 at 8:25:08 AM

Latest Report: Aug 31, 2016 at 7:50 AM


Visibility: N/A

Pressure: 30.15 "Hg

Humidity: 94%

Dew Point: 55 °F

Location of EsbjergLocation

Past Weather in Esbjerg — Graph

°F

Esbjerg Temperature Yesterday

Maximum temperature yesterday: 68 °F (at 12:20 PM)
Minimum temperature yesterday: 54 °F (at 12:50 AM)
Average temperature yesterday: 61 °F

High & Low Weather Summary for the Past Weeks

 TemperatureHumidityPressure
High82 °F (Aug 25, 2:20 PM)100% (Aug 16, 7:20 AM)30.30 "Hg (Aug 16, 7:20 AM)
Low45 °F (Aug 17, 6:20 AM)44% (Aug 16, 3:50 PM)29.74 "Hg (Aug 20, 7:20 AM)
Average63 °F82%30.02 "Hg
* Reported Aug 16 7:20 AM — Aug 31 7:20 AM, Esbjerg, Weather by CustomWeather, © 2016

Note: Actual official high and low records may vary slightly from our data, if they occured in-between our weather recording intervals... More about our weather records

Advertising

Esbjerg Weather History for the Previous 24 Hours

Scroll right to see more
 ConditionsComfort  
Time TempWeatherWind HumidityBarometerVisibility
7:20 AM
Wed, Aug 31
54 °FCool.5 mph100%30.15 "Hg5 mi
6:50 AM54 °FCool.3 mph94%30.18 "Hg5 mi
6:20 AM55 °FCool.6 mph94%30.18 "HgN/A
5:50 AM55 °FCool.5 mph100%30.18 "HgN/A
5:20 AM55 °FCool.5 mph94%30.18 "HgN/A
4:50 AM55 °FCool.5 mph94%30.18 "HgN/A
4:20 AM57 °FCool.5 mph94%30.18 "HgN/A
3:50 AM57 °FCool.6 mph88%30.18 "HgN/A
3:20 AM57 °FCool.6 mph94%30.18 "HgN/A
2:50 AM57 °FCool.5 mph94%30.18 "HgN/A
2:20 AM57 °FCool.6 mph94%30.18 "HgN/A
1:50 AM59 °FCool.6 mph94%30.21 "HgN/A
1:20 AM57 °FCool.6 mph94%30.21 "HgN/A
12:50 AM57 °FCool.5 mph94%30.21 "HgN/A
12:20 AM59 °FCool.5 mph94%30.21 "HgN/A
11:50 PM
Tue, Aug 30
57 °FCool.5 mph94%30.21 "HgN/A
11:20 PM57 °FPassing clouds.5 mph94%30.21 "HgN/A
10:50 PM59 °FCool.6 mph94%30.21 "HgN/A
10:20 PM59 °FPassing clouds.5 mph94%30.21 "HgN/A
9:50 PM61 °FPassing clouds.6 mph88%30.21 "HgN/A
9:20 PM61 °FPassing clouds.6 mph88%30.21 "HgN/A
8:50 PM59 °FPassing clouds.7 mph94%30.21 "HgN/A
8:20 PM61 °FPassing clouds.7 mph88%30.21 "HgN/A
7:50 PM63 °FMild.8 mph83%30.21 "HgN/A
7:20 PM64 °FPassing clouds.10 mph78%30.21 "HgN/A
6:50 PM64 °FPassing clouds.12 mph83%30.21 "HgN/A
6:20 PM66 °FPassing clouds.12 mph73%30.21 "HgN/A
5:50 PM66 °FPassing clouds.13 mph73%30.21 "HgN/A
5:20 PM66 °FPassing clouds.13 mph73%30.21 "HgN/A
4:50 PM68 °FPassing clouds.15 mph69%30.21 "HgN/A
4:20 PM66 °FPartly sunny.16 mph73%30.24 "HgN/A
3:50 PM66 °FPartly sunny.15 mph73%30.24 "HgN/A
3:20 PM68 °FScattered clouds.15 mph69%30.24 "HgN/A
2:50 PM68 °FPassing clouds.16 mph64%30.24 "HgN/A
2:20 PM68 °FPassing clouds.16 mph69%30.24 "HgN/A
1:50 PM68 °FPassing clouds.17 mph69%30.24 "HgN/A
1:20 PM68 °FPassing clouds.15 mph69%30.24 "HgN/A
12:50 PM66 °FPassing clouds.14 mph73%30.21 "HgN/A
12:20 PM68 °FPassing clouds.15 mph73%30.21 "HgN/A
11:50 AM66 °FPartly sunny.15 mph68%30.21 "HgN/A
11:20 AM64 °FScattered clouds.16 mph78%30.21 "HgN/A
10:50 AM66 °FPartly sunny.14 mph73%30.21 "HgN/A
10:20 AM64 °FScattered clouds.13 mph78%30.21 "HgN/A
9:50 AM64 °FPartly sunny.13 mph73%30.21 "HgN/A
9:20 AM64 °FScattered clouds.13 mph68%30.18 "HgN/A
8:50 AM63 °FScattered clouds.13 mph77%30.18 "HgN/A
8:20 AM61 °FPassing clouds.10 mph77%30.18 "HgN/A
Weather by CustomWeather, © 2016

See weather overviewHow to use our weather pages